Time,TemperatureF,DewpointF,PressureIn,WindDirection,WindDirectionDegrees,WindSpeedMPH,WindSpeedGustMPH,Humidity,HourlyPrecipIn,Conditions,Clouds,dailyrainin,SolarRadiationWatts/m^2,SoftwareType,DateUTC
2013-05-19 00:04:00,55.8,48.0,30.14,West,272,5.0,11.0,74,0.00,,,0.00,0,weatherlink.com 1.10,2013-05-19 07:04:00,
2013-05-19 00:19:00,55.3,48.0,30.14,West,260,5.0,12.0,76,0.00,,,0.00,0,weatherlink.com 1.10,2013-05-19 07:19:00,
2013-05-19 00:34:00,55.1,48.0,30.14,SSW,201,3.0,6.0,76,0.00,,,0.00,0,weatherlink.com 1.10,2013-05-19 07:34:00,
2013-05-19 00:49:00,55.1,48.0,30.14,WNW,293,0.0,7.0,77,0.00,,,0.00,0,weatherlink.com 1.10,2013-05-19 07:49:00,
2013-05-19 01:04:00,54.8,48.0,30.14,West,277,3.0,4.0,78,0.00,,,0.00,0,weatherlink.com 1.10,2013-05-19 08:04:00,
2013-05-19 01:19:00,54.5,48.0,30.14,WSW,257,1.0,7.0,79,0.00,,,0.00,0,weatherlink.com 1.10,2013-05-19 08:19:00,
2013-05-19 01:34:00,54.3,48.0,30.14,WNW,295,3.0,8.0,80,0.00,,,0.00,0,weatherlink.com 1.10,2013-05-19 08:34:00,
2013-05-19 01:49:00,54.2,49.0,30.14,WNW,291,3.0,7.0,81,0.00,,,0.00,0,weatherlink.com 1.10,2013-05-19 08:49:00,
2013-05-19 02:04:00,54.3,49.0,30.14,WSW,244,2.0,3.0,81,0.00,,,0.00,0,weatherlink.com 1.10,2013-05-19 09:04:00,
2013-05-19 02:19:00,54.3,49.0,30.14,WSW,244,1.0,3.0,81,0.00,,,0.00,0,weatherlink.com 1.10,2013-05-19 09:19:00,
2013-05-19 02:34:00,54.3,49.0,30.14,SW,224,1.0,1.0,81,0.00,,,0.00,0,weatherlink.com 1.10,2013-05-19 09:34:00,
2013-05-19 02:49:00,54.4,48.0,30.14,SW,224,0.0,1.0,80,0.00,,,0.00,0,weatherlink.com 1.10,2013-05-19 09:49:00,
2013-05-19 03:04:00,54.1,48.0,30.14,SW,224,0.0,2.0,81,0.00,,,0.00,0,weatherlink.com 1.10,2013-05-19 10:04:00,
2013-05-19 03:19:00,54.1,48.0,30.14,SW,224,2.0,2.0,81,0.00,,,0.00,0,weatherlink.com 1.10,2013-05-19 10:19:00,
2013-05-19 03:34:00,53.8,48.0,30.14,West,268,3.0,4.0,82,0.00,,,0.00,0,weatherlink.com 1.10,2013-05-19 10:34:00,
2013-05-19 03:49:00,53.7,48.0,30.14,West,268,0.0,2.0,82,0.00,,,0.00,0,weatherlink.com 1.10,2013-05-19 10:49:00,
2013-05-19 04:04:00,53.9,49.0,30.14,West,268,0.0,1.0,82,0.00,,,0.00,0,weatherlink.com 1.10,2013-05-19 11:04:00,
2013-05-19 04:19:00,53.8,48.0,30.15,West,268,0.0,1.0,82,0.00,,,0.00,0,weatherlink.com 1.10,2013-05-19 11:19:00,
2013-05-19 04:34:00,53.7,48.0,30.14,West,268,0.0,0.0,82,0.00,,,0.00,0,weatherlink.com 1.10,2013-05-19 11:34:00,
2013-05-19 04:49:00,53.6,48.0,30.14,West,268,0.0,0.0,82,0.00,,,0.00,0,weatherlink.com 1.10,2013-05-19 11:49:00,
2013-05-19 05:04:00,53.4,48.0,30.14,West,268,0.0,0.0,82,0.00,,,0.00,0,weatherlink.com 1.10,2013-05-19 12:04:00,
2013-05-19 05:19:00,53.4,48.0,30.14,West,268,0.0,1.0,83,0.00,,,0.00,0,weatherlink.com 1.10,2013-05-19 12:19:00,
2013-05-19 05:34:00,53.5,48.0,30.14,West,268,0.0,0.0,82,0.00,,,0.00,0,weatherlink.com 1.10,2013-05-19 12:34:00,
2013-05-19 05:49:00,53.5,48.0,30.15,West,268,0.0,0.0,81,0.00,,,0.00,0,weatherlink.com 1.10,2013-05-19 12:49:00,
2013-05-19 06:04:00,53.4,48.0,30.15,West,268,0.0,0.0,81,0.00,,,0.00,9,weatherlink.com 1.10,2013-05-19 13:04:00,
2013-05-19 06:19:00,53.5,48.0,30.16,West,268,0.0,0.0,81,0.00,,,0.00,19,weatherlink.com 1.10,2013-05-19 13:19:00,
2013-05-19 06:34:00,53.8,48.0,30.16,West,268,0.0,0.0,81,0.00,,,0.00,44,weatherlink.com 1.10,2013-05-19 13:34:00,
2013-05-19 06:49:00,54.2,49.0,30.16,West,268,0.0,1.0,81,0.00,,,0.00,40,weatherlink.com 1.10,2013-05-19 13:49:00,
2013-05-19 07:04:00,55.3,49.0,30.16,West,268,0.0,0.0,80,0.00,,,0.00,132,weatherlink.com 1.10,2013-05-19 14:04:00,
2013-05-19 07:19:00,55.9,50.0,30.16,West,268,0.0,1.0,79,0.00,,,0.00,181,weatherlink.com 1.10,2013-05-19 14:19:00,
2013-05-19 07:34:00,57.0,50.0,30.16,West,268,0.0,1.0,77,0.00,,,0.00,230,weatherlink.com 1.10,2013-05-19 14:34:00,
2013-05-19 07:50:00,57.7,50.0,30.16,West,268,0.0,2.0,76,0.00,,,0.00,276,weatherlink.com 1.10,2013-05-19 14:50:00,
2013-05-19 08:05:00,59.4,53.0,30.16,SE,141,0.0,2.0,79,0.00,,,0.00,323,weatherlink.com 1.10,2013-05-19 15:05:00,
2013-05-19 08:20:00,60.1,53.0,30.16,SE,141,0.0,3.0,77,0.00,,,0.00,373,weatherlink.com 1.10,2013-05-19 15:20:00,
2013-05-19 08:35:00,61.6,53.0,30.16,SE,129,2.0,3.0,74,0.00,,,0.00,422,weatherlink.com 1.10,2013-05-19 15:35:00,
2013-05-19 08:50:00,62.1,54.0,30.16,SE,138,0.0,3.0,74,0.00,,,0.00,471,weatherlink.com 1.10,2013-05-19 15:50:00,
2013-05-19 09:05:00,63.2,53.0,30.16,ENE,77,0.0,3.0,70,0.00,,,0.00,520,weatherlink.com 1.10,2013-05-19 16:05:00,
2013-05-19 09:20:00,64.1,53.0,30.16,NE,50,1.0,4.0,68,0.00,,,0.00,561,weatherlink.com 1.10,2013-05-19 16:20:00,
2013-05-19 09:35:00,64.8,53.0,30.16,ESE,109,2.0,3.0,66,0.00,,,0.00,608,weatherlink.com 1.10,2013-05-19 16:35:00,
2013-05-19 09:50:00,66.5,53.0,30.16,ENE,68,0.0,4.0,62,0.00,,,0.00,654,weatherlink.com 1.10,2013-05-19 16:50:00,
2013-05-19 10:05:00,67.7,53.0,30.15,East,82,3.0,4.0,59,0.00,,,0.00,687,weatherlink.com 1.10,2013-05-19 17:05:00,
2013-05-19 10:20:00,68.3,52.0,30.15,ENE,69,4.0,6.0,56,0.00,,,0.00,726,weatherlink.com 1.10,2013-05-19 17:20:00,
2013-05-19 10:35:00,69.1,51.0,30.15,SE,144,1.0,3.0,53,0.00,,,0.00,758,weatherlink.com 1.10,2013-05-19 17:35:00,
2013-05-19 10:50:00,71.8,49.0,30.14,WNW,293,0.0,7.0,45,0.00,,,0.00,789,weatherlink.com 1.10,2013-05-19 17:50:00,
2013-05-19 11:05:00,73.0,47.0,30.14,West,280,2.0,7.0,40,0.00,,,0.00,828,weatherlink.com 1.10,2013-05-19 18:05:00,
2013-05-19 11:21:00,72.3,47.0,30.14,West,267,2.0,9.0,41,0.00,,,0.00,854,weatherlink.com 1.10,2013-05-19 18:21:00,
2013-05-19 11:36:00,74.3,46.0,30.14,WNW,282,1.0,7.0,37,0.00,,,0.00,877,weatherlink.com 1.10,2013-05-19 18:36:00,
2013-05-19 11:51:00,73.9,47.0,30.13,WSW,250,2.0,8.0,38,0.00,,,0.00,898,weatherlink.com 1.10,2013-05-19 18:51:00,
2013-05-19 12:06:00,73.6,48.0,30.13,West,281,4.0,9.0,40,0.00,,,0.00,914,weatherlink.com 1.10,2013-05-19 19:06:00,
2013-05-19 12:21:00,75.4,47.0,30.13,West,264,7.0,9.0,37,0.00,,,0.00,928,weatherlink.com 1.10,2013-05-19 19:21:00,
2013-05-19 12:36:00,72.7,47.0,30.12,WSW,258,2.0,11.0,40,0.00,,,0.00,937,weatherlink.com 1.10,2013-05-19 19:36:00,
2013-05-19 12:51:00,71.0,48.0,30.12,WNW,285,10.0,14.0,44,0.00,,,0.00,944,weatherlink.com 1.10,2013-05-19 19:51:00,
2013-05-19 13:06:00,71.3,48.0,30.11,West,263,8.0,11.0,43,0.00,,,0.00,949,weatherlink.com 1.10,2013-05-19 20:06:00,
2013-05-19 13:21:00,69.8,49.0,30.11,SSW,208,3.0,16.0,47,0.00,,,0.00,949,weatherlink.com 1.10,2013-05-19 20:21:00,
2013-05-19 13:36:00,69.8,49.0,30.10,West,273,9.0,14.0,48,0.00,,,0.00,942,weatherlink.com 1.10,2013-05-19 20:36:00,
2013-05-19 13:51:00,69.2,50.0,30.10,SSW,202,4.0,13.0,50,0.00,,,0.00,937,weatherlink.com 1.10,2013-05-19 20:51:00,
2013-05-19 14:06:00,67.6,50.0,30.10,SSW,210,6.0,19.0,53,0.00,,,0.00,925,weatherlink.com 1.10,2013-05-19 21:06:00,
2013-05-19 14:21:00,69.1,50.0,30.10,West,274,6.0,17.0,50,0.00,,,0.00,911,weatherlink.com 1.10,2013-05-19 21:21:00,
2013-05-19 14:36:00,67.7,49.0,30.09,West,279,7.0,17.0,52,0.00,,,0.00,891,weatherlink.com 1.10,2013-05-19 21:36:00,
2013-05-19 14:51:00,68.5,49.0,30.09,West,268,13.0,19.0,50,0.00,,,0.00,870,weatherlink.com 1.10,2013-05-19 21:51:00,
2013-05-19 15:06:00,69.5,48.0,30.08,SSW,197,8.0,16.0,47,0.00,,,0.00,851,weatherlink.com 1.10,2013-05-19 22:06:00,
2013-05-19 15:21:00,71.2,48.0,30.07,South,185,7.0,14.0,44,0.00,,,0.00,821,weatherlink.com 1.10,2013-05-19 22:21:00,
2013-05-19 15:36:00,70.4,47.0,30.07,West,276,2.0,14.0,44,0.00,,,0.00,788,weatherlink.com 1.10,2013-05-19 22:36:00,
2013-05-19 15:51:00,70.6,48.0,30.07,WSW,245,8.0,12.0,44,0.00,,,0.00,756,weatherlink.com 1.10,2013-05-19 22:51:00,
2013-05-19 16:06:00,70.3,47.0,30.06,SSW,207,7.0,17.0,43,0.00,,,0.00,719,weatherlink.com 1.10,2013-05-19 23:06:00,
2013-05-19 16:21:00,69.2,48.0,30.05,West,270,8.0,16.0,47,0.00,,,0.00,682,weatherlink.com 1.10,2013-05-19 23:21:00,
2013-05-19 16:36:00,69.0,49.0,30.05,NNW,345,4.0,12.0,50,0.00,,,0.00,640,weatherlink.com 1.10,2013-05-19 23:36:00,
2013-05-19 16:51:00,67.7,48.0,30.04,NW,308,2.0,15.0,50,0.00,,,0.00,598,weatherlink.com 1.10,2013-05-19 23:51:00,
2013-05-19 17:06:00,68.9,49.0,30.04,WSW,246,2.0,9.0,49,0.00,,,0.00,557,weatherlink.com 1.10,2013-05-20 00:06:00,
2013-05-19 17:21:00,66.6,49.0,30.04,WSW,247,7.0,15.0,54,0.00,,,0.00,510,weatherlink.com 1.10,2013-05-20 00:21:00,
2013-05-19 17:36:00,65.5,49.0,30.04,SSW,194,2.0,16.0,56,0.00,,,0.00,464,weatherlink.com 1.10,2013-05-20 00:36:00,
2013-05-19 17:51:00,64.4,50.0,30.04,NW,304,4.0,14.0,59,0.00,,,0.00,411,weatherlink.com 1.10,2013-05-20 00:51:00,
2013-05-19 18:06:00,64.5,49.0,30.03,SW,233,4.0,13.0,58,0.00,,,0.00,364,weatherlink.com 1.10,2013-05-20 01:06:00,
2013-05-19 18:21:00,64.5,49.0,30.03,WSW,258,2.0,9.0,58,0.00,,,0.00,316,weatherlink.com 1.10,2013-05-20 01:21:00,
2013-05-19 18:36:00,63.8,49.0,30.02,WNW,299,14.0,14.0,59,0.00,,,0.00,262,weatherlink.com 1.10,2013-05-20 01:36:00,
2013-05-19 18:51:00,62.4,49.0,30.02,SSW,195,5.0,15.0,62,0.00,,,0.00,211,weatherlink.com 1.10,2013-05-20 01:51:00,
2013-05-19 19:06:00,60.8,50.0,30.02,WSW,245,5.0,19.0,67,0.00,,,0.00,148,weatherlink.com 1.10,2013-05-20 02:06:00,
2013-05-19 19:21:00,59.6,49.0,30.02,WSW,249,4.0,16.0,69,0.00,,,0.00,35,weatherlink.com 1.10,2013-05-20 02:21:00,
2013-05-19 19:36:00,59.1,49.0,30.02,WSW,246,7.0,11.0,70,0.00,,,0.00,28,weatherlink.com 1.10,2013-05-20 02:36:00,
2013-05-19 19:51:00,59.2,49.0,30.02,West,264,3.0,7.0,70,0.00,,,0.00,19,weatherlink.com 1.10,2013-05-20 02:51:00,
2013-05-19 20:06:00,59.1,49.0,30.03,West,260,3.0,9.0,70,0.00,,,0.00,11,weatherlink.com 1.10,2013-05-20 03:06:00,
2013-05-19 20:21:00,58.4,49.0,30.03,WNW,293,4.0,10.0,71,0.00,,,0.00,0,weatherlink.com 1.10,2013-05-20 03:21:00,
2013-05-19 20:36:00,57.4,49.0,30.03,WSW,243,3.0,7.0,73,0.00,,,0.00,0,weatherlink.com 1.10,2013-05-20 03:36:00,
2013-05-19 20:51:00,57.1,49.0,30.03,ESE,121,3.0,7.0,74,0.00,,,0.00,0,weatherlink.com 1.10,2013-05-20 03:51:00,
2013-05-19 21:06:00,56.7,49.0,30.02,NNW,331,5.0,12.0,75,0.00,,,0.00,0,weatherlink.com 1.10,2013-05-20 04:06:00,
2013-05-19 21:21:00,56.2,49.0,30.03,WSW,250,3.0,10.0,76,0.00,,,0.00,0,weatherlink.com 1.10,2013-05-20 04:21:00,
2013-05-19 21:36:00,56.1,49.0,30.03,West,263,3.0,7.0,77,0.00,,,0.00,0,weatherlink.com 1.10,2013-05-20 04:36:00,
2013-05-19 21:52:00,56.1,49.0,30.04,WSW,253,2.0,6.0,77,0.00,,,0.00,0,weatherlink.com 1.10,2013-05-20 04:52:00,
2013-05-19 22:07:00,56.0,49.0,30.04,West,267,1.0,7.0,77,0.00,,,0.00,0,weatherlink.com 1.10,2013-05-20 05:07:00,
2013-05-19 22:22:00,56.2,49.0,30.04,West,262,1.0,6.0,77,0.00,,,0.00,0,weatherlink.com 1.10,2013-05-20 05:22:00,
2013-05-19 22:37:00,56.4,49.0,30.05,West,280,0.0,4.0,76,0.00,,,0.00,0,weatherlink.com 1.10,2013-05-20 05:37:00,
2013-05-19 22:52:00,56.3,49.0,30.05,West,281,0.0,3.0,76,0.00,,,0.00,0,weatherlink.com 1.10,2013-05-20 05:52:00,
2013-05-19 23:07:00,56.4,49.0,30.04,West,281,0.0,3.0,77,0.00,,,0.00,0,weatherlink.com 1.10,2013-05-20 06:07:00,
2013-05-19 23:22:00,56.6,49.0,30.04,West,281,0.0,0.0,76,0.00,,,0.00,0,weatherlink.com 1.10,2013-05-20 06:22:00,
2013-05-19 23:37:00,56.5,49.0,30.04,West,281,0.0,1.0,76,0.00,,,0.00,0,weatherlink.com 1.10,2013-05-20 06:37:00,
2013-05-19 23:52:00,56.9,49.0,30.03,West,281,0.0,1.0,75,0.00,,,0.00,0,weatherlink.com 1.10,2013-05-20 06:52:00,